Location: *
(52.2090°N, 4.1550°W)
Time: 21:13:38
(UTC+00:00)

NOSS 2-3 (C) - Pass Details

Date: 19 July 2019
Orbit: 600 x 1611 km, 63.4° (Epoch: 10 August)

Event Time Altitude Azimuth Distance (km) Brightness Sun altitude
Exits shadow 23:40:24 17° 218° (SW) 1,638 5.3 -16.4°
Maximum altitude 23:43:55 80° 133° (SE) 737 3.8 -16.5°
Drops below altitude 10° 23:49:29 10° 47° (NE) 2,485 7.1 -16.7°
Sets 23:52:16 0° 47° (NE) 3,583 8.0 -16.7°
